Logan, UT

4:41 PM MST on December 15, 2019 (GMT -0700)
Logan-Cache

Weather History for KLGU - October, 2019

Change the Weather History Date:

Sunday, October 27, 2019

  Actual Average Record
Temperature  
Mean Temperature 28 °F -  
Max Temperature 37 °F 58 °F 75 °F (2016)
Min Temperature 19 °F 30 °F 19 °F (1970)
Degree Days  
Heating Degree Days 37    
Moisture  
Dew Point 17 °F    
Average Humidity 65    
Maximum Humidity 88    
Minimum Humidity 35    
Precipitation  
Precipitation 0.00 in - - ()
Sea Level Pressure  
Sea Level Pressure 30.08 in    
Wind  
Wind Speed 11 mph ()    
Max Wind Speed 18 mph    
Max Gust Speed 26 mph    
Visibility 7.5 miles    
Events Snow    
Averages and records for this station are not official NWS values.
T = Trace of Precipitation, MM = Missing Value Source: Averaged Metar Reports

Daily Weather History Graph

Daily Weather History Graph

Search for Another Location

Airport or City:

Astronomy

Oct. 27, 2019 Rise Set
Actual Time 7:53 AM MDT 6:28 PM MDT
Civil Twilight 7:24 AM MDT 6:57 PM MDT
Nautical Twilight 6:52 AM MDT 7:29 PM MDT
Astronomical Twilight 6:19 AM MDT 8:01 PM MDT
Moon 7:05 AM MDT (10/27) 6:41 PM MDT (10/27)
Length of Visible Light 11h 32m
Length of Day
10h 35m
Waning Crescent, 0% of the Moon is Illuminated
Oct 27
Waning Crescent
Oct 27
New
Nov 4
First Quarter
Nov 12
Full
Nov 19
Last Quarter

Hourly Weather History & Observations

Time (MDT) Temp. Windchill Dew Point Humidity Pressure Visibility Wind Dir Wind Speed Gust Speed Precip Events Conditions
12:51 AM 30.9 °F 26.2 °F 26.1 °F 82% 29.89 in 10.0 mi NW 4.6 mph - N/A   Partly Cloudy
1:51 AM 30.9 °F 26.2 °F 25.0 °F 79% 29.92 in 10.0 mi NW 4.6 mph - N/A   Partly Cloudy
2:51 AM 30.9 °F 21.7 °F 21.9 °F 69% 29.94 in 10.0 mi North 11.5 mph - N/A   Mostly Cloudy
3:32 AM 30.9 °F 21.7 °F 19.0 °F 61% 29.94 in 10.0 mi North 11.5 mph - N/A   Overcast
3:51 AM 30.9 °F 22.2 °F 19.0 °F 61% 29.94 in 10.0 mi North 10.4 mph - N/A   Overcast
4:51 AM 30.0 °F 20.5 °F 17.1 °F 59% 29.96 in 10.0 mi North 11.5 mph - N/A   Overcast
5:04 AM 30.0 °F 20.0 °F 17.1 °F 59% 29.95 in 10.0 mi North 12.7 mph - N/A   Overcast
5:51 AM 28.0 °F 15.7 °F 19.9 °F 72% 29.99 in 10.0 mi North 17.3 mph 26.5 mph N/A   Overcast
6:46 AM 27.0 °F 14.7 °F 21.9 °F 81% 30.00 in 4.0 mi North 16.1 mph 25.3 mph 0.00 in Snow Light Snow
6:51 AM 26.1 °F 12.7 °F 21.9 °F 84% 30.04 in 4.0 mi North 18.4 mph - 0.00 in Snow Light Snow
7:07 AM 26.1 °F 13.6 °F 21.9 °F 84% 30.01 in 2.5 mi North 16.1 mph - 0.00 in Snow Light Snow
7:34 AM 25.0 °F 13.1 °F 21.9 °F 88% 30.02 in 1.8 mi North 13.8 mph 21.9 mph 0.00 in Snow Light Snow
7:39 AM 25.0 °F 13.1 °F 21.9 °F 88% 30.02 in 2.0 mi North 13.8 mph - 0.00 in Snow Light Snow
7:46 AM 25.0 °F 12.2 °F 21.9 °F 88% 30.03 in 2.5 mi North 16.1 mph - 0.00 in Snow Light Snow
7:51 AM 25.0 °F 12.2 °F 21.9 °F 88% 30.08 in 2.0 mi North 16.1 mph - 0.00 in Snow Light Snow
8:09 AM 25.0 °F 12.6 °F 21.0 °F 85% 30.04 in 1.8 mi North 15.0 mph - 0.00 in Snow Light Snow
8:18 AM 25.0 °F 12.2 °F 21.0 °F 85% 30.04 in 2.0 mi North 16.1 mph - 0.00 in Snow Light Snow
8:46 AM 25.0 °F 12.6 °F 19.9 °F 81% 30.05 in 4.0 mi North 15.0 mph - 0.00 in Snow Light Snow
8:51 AM 25.0 °F 12.6 °F 19.9 °F 81% 30.11 in 4.0 mi North 15.0 mph - 0.00 in Snow Light Snow
9:51 AM 25.0 °F 12.6 °F 18.0 °F 75% 30.15 in 4.0 mi North 15.0 mph - 0.00 in Snow Light Snow
10:51 AM 28.0 °F 17.0 °F 17.1 °F 63% 30.15 in 10.0 mi North 13.8 mph - 0.00 in   Overcast
11:51 AM 30.9 °F 21.2 °F 17.1 °F 57% 30.15 in 10.0 mi North 12.7 mph - N/A   Overcast
12:51 PM 33.1 °F 24.4 °F 17.1 °F 52% 30.14 in 10.0 mi North 11.5 mph - N/A   Overcast
1:51 PM 33.1 °F 23.0 °F 16.0 °F 50% 30.13 in 10.0 mi North 15.0 mph - N/A   Overcast
2:51 PM 34.0 °F 23.8 °F 16.0 °F 48% 30.12 in 10.0 mi North 16.1 mph - N/A   Overcast
3:51 PM 35.1 °F 26.4 °F 15.1 °F 44% 30.13 in 10.0 mi NNE 12.7 mph 19.6 mph N/A   Overcast
4:51 PM 37.0 °F 28.9 °F 12.9 °F 37% 30.12 in 10.0 mi North 12.7 mph - N/A   Overcast
5:51 PM 34.0 °F 25.0 °F 9.0 °F 35% 30.13 in 10.0 mi North 12.7 mph - N/A   Overcast
6:51 PM 30.0 °F 19.1 °F 6.1 °F 36% 30.17 in 10.0 mi North 15.0 mph - N/A   Mostly Cloudy
7:51 PM 28.0 °F 15.7 °F 5.0 °F 38% 30.19 in 10.0 mi North 17.3 mph - N/A   Overcast
8:51 PM 24.1 °F 12.5 °F 8.1 °F 51% 30.22 in 10.0 mi NNW 12.7 mph - N/A   Clear
9:51 PM 23.0 °F 13.1 °F 7.0 °F 50% 30.25 in 10.0 mi North 9.2 mph - N/A   Clear
10:51 PM 19.9 °F 11.1 °F 8.1 °F 60% 30.27 in 10.0 mi NNW 6.9 mph - N/A   Clear
11:51 PM 21.9 °F - 7.0 °F 53% 30.26 in 10.0 mi Calm Calm - N/A   Clear